Location: Diebersbach
(48.5163°N, 8.0558°E)
Time: 20:47:00
(UTC+00:00)

Lacrosse 5 rocket - Visible Passes

Search period start: 20 October 2021 00:00
Search period end: 30 October 2021 00:00
Orbit: 464 x 629 km, 57.0° (Epoch: 19 October)

Date Brightness Start Highest point End Pass type
(mag) Time Alt. Az. Time Alt. Az. Time Alt. Az.
20 Oct 1.4 03:39:20 72° S 03:39:35 75° SE 03:44:00 10° ENE visible
20 Oct 2.4 05:15:05 10° W 05:19:05 35° NNW 05:23:15 10° NE visible
21 Oct 1.4 03:33:33 78° NE 03:33:33 78° NE 03:37:42 10° NE visible
21 Oct 2.5 05:09:10 11° WNW 05:12:52 32° NNW 05:16:58 10° NE visible
22 Oct 1.9 03:27:42 58° NNE 03:27:42 58° NNE 03:31:23 10° NE visible
22 Oct 2.6 05:03:19 13° WNW 05:06:41 30° NNW 05:10:41 10° NE visible
23 Oct 2.3 03:21:48 44° NNE 03:21:48 44° NNE 03:25:03 10° NE visible
23 Oct 2.7 04:57:25 14° WNW 05:00:29 29° N 05:04:26 10° NE visible
24 Oct 2.8 03:15:51 35° NNE 03:15:51 35° NNE 03:18:44 10° NE visible
24 Oct 2.8 04:51:28 15° WNW 04:54:18 28° N 04:58:12 10° NE visible
25 Oct 3.1 03:09:53 29° NNE 03:09:53 29° NNE 03:12:24 10° NE visible
25 Oct 2.9 04:45:29 16° NW 04:48:07 27° N 04:51:59 10° ENE visible
26 Oct 3.4 03:03:52 25° NNE 03:03:52 25° NNE 03:06:05 10° NE visible
26 Oct 2.9 04:39:28 17° NW 04:41:56 27° N 04:45:47 10° ENE visible
27 Oct 3.6 02:57:51 22° NNE 02:57:51 22° NNE 02:59:45 10° NE visible
27 Oct 3.0 04:33:26 18° NW 04:35:44 27° N 04:39:37 10° ENE visible
28 Oct 3.8 02:51:49 19° NE 02:51:49 19° NE 02:53:27 10° NE visible
28 Oct 3.0 04:27:25 19° NW 04:29:33 28° N 04:33:27 10° ENE visible
29 Oct 4.0 02:45:47 17° NE 02:45:47 17° NE 02:47:09 10° NE visible
29 Oct 2.9 04:21:23 21° NNW 04:23:21 29° N 04:27:18 10° ENE visible
